Location: Christchurch
(43.5330°S, 172.6330°E)
Time: 22:46:02
(UTC+13:00)

Cosmos 1386 Rocket - Pass Details

Date: 24 January 2019
Orbit: 930 x 1005 km, 83.0° (Epoch: 17 February)

Event Time Altitude Azimuth Distance (km) Brightness Sun altitude
Exits shadow 23:09:17 22° 2° (N) 1,956 5.6 -18.2°
Maximum altitude 23:13:24 77° 85° (E) 987 4.4 -18.6°
Drops below altitude 10° 23:19:32 10° 169° (S) 2,688 7.4 -19.3°
Sets 23:22:02 0° 170° (S) 3,632 8.2 -19.6°
